[Iaude] MPEC Y104: 2023 YO1 [a=1.02,e=0.05,i=4.4,H=25.9]

mpec at marsden.cfa.harvard.edu mpec at marsden.cfa.harvard.edu
Sat Dec 30 08:58:13 EST 2023


M.P.E.C. 2023-Y104                            Issued 2023 December 30, 13:56 UT

     The Minor Planet Electronic Circulars contain information on unusual
         minor planets, routine data on comets and natural satellites,
         and occasional editorial announcements.  They are published
    on behalf of Division F of the International Astronomical Union by the
          Minor Planet Center, Smithsonian Astrophysical Observatory,
                          Cambridge, MA 02138, U.S.A.
			  
             Prepared using the Tamkin Foundation Computer Network

                              MPC at CFA.HARVARD.EDU
            URL https://www.minorplanetcenter.net/    ISSN 1523-6714

                                    2023 YO1                                    


Observations:
     K23Y01O  C2023 12 25.58988611 49 02.301+50 39 59.04         20.40GVEY104F52
     K23Y01O  C2023 12 25.59837711 49 03.852+50 39 17.96         21.81GVEY104F52
     K23Y01O  C2023 12 25.60686311 49 05.300+50 38 36.80         21.11GVEY104F52
     K23Y01O  C2023 12 25.60920911 49 05.736+50 38 25.04         20.73GVEY104F51
     K23Y01O* C2023 12 25.61639911 49 06.964+50 37 49.06         20.25iXEY104F51
     K23Y01O  C2023 12 25.62362811 49 08.190+50 37 12.75         20.31iXEY104F51
     K23Y01O  C2023 12 25.63082511 49 09.388+50 36 36.46         20.97GVEY104F51
     K23Y01O  C2023 12 26.64238211 54 41.121+49 01 09.19         20.82GVEY104F51
     K23Y01O  C2023 12 26.64319611 54 41.243+49 01 04.50         20.67GVEY104F51
     K23Y01O  C2023 12 29.63223112 11 24.552+43 15 16.63         20.18iXEY104F52
     K23Y01O  C2023 12 29.64093912 11 26.010+43 14 08.90         19.68iXEY104F52
     K23Y01O  C2023 12 29.64971912 11 27.487+43 12 59.74         19.80iXEY104F52

Observer details:
F51 Pan-STARRS 1, Haleakala.  Observers J. Herman, T. Lowe, P. Minguez, A.
    Schultz, I. Smith.  Measurers K. Chambers, T. de Boer, J. Fairlamb, H.
    Gao, M. Huber, C.-C. Lin, E. Magnier, Y. Ramanjooloo, R. Wainscoat, R.
    Weryk.  1.8-m Ritchey-Chretien + CCD.
F52 Pan-STARRS 2, Haleakala.  Observers J. Herman, T. Lowe, P. Minguez, A.
    Schultz, I. Smith.  Measurers K. Chambers, T. de Boer, J. Fairlamb, H.
    Gao, M. Huber, C.-C. Lin, E. Magnier, Y. Ramanjooloo, R. Wainscoat, R.
    Weryk.  1.8-m Ritchey-Chretien + CCD.

Orbital elements:
2023 YO1                                                 Earth MOID = 0.0017 AU
Epoch 2023 Sept. 13.0 TT = JDT 2460200.5                MPC                     
M 195.51032              (2000.0)            P               Q                  
n   0.96121623     Peri.  233.26828     -0.96305124     -0.25949056             
a   1.0168463      Node   291.59256     +0.26514468     -0.86658801             
e   0.0530506      Incl.    4.44664     +0.04722922     -0.42625095             
P   1.03           H   25.91          G   0.15           U   6                  
Residuals in seconds of arc
231225 F52  0.1-  0.1-    231225 F51  0.0   0.2-    231226 F51  0.0   0.0
231225 F52  0.2+  0.2-    231225 F51  0.0   0.1-    231229 F52  0.0   0.1+
231225 F52  0.2-  0.2+    231225 F51  0.1-  0.2+    231229 F52  0.1-  0.1+
231225 F51  0.0   0.1+    231226 F51  0.1+  0.0     231229 F52  0.0   0.2-

Ephemeris:
2023 YO1                 a,e,i = 1.02, 0.05, 4                   q = 0.9629
Date    TT    R. A. (2000) Decl.     Delta      r    Elong.  Phase     V
2023 11 30    09 28 28.4 +65 20 43   0.07266 1.0191   115.0    61.3    22.4
...
2023 12 15    10 51 43.7 +60 40 28   0.04884 1.0055   114.4    63.1    21.6
...
2023 12 23    11 34 45.5 +54 03 16   0.03655 0.9984   112.7    65.3    21.0
...
2023 12 29    12 07 43.7 +44 35 28   0.02799 0.9932   109.8    68.7    20.5
2023 12 30    12 13 22.6 +42 23 11   0.02667 0.9923   109.0    69.6    20.5
2023 12 31    12 19 04.9 +39 56 35   0.02540 0.9915   108.1    70.5    20.4
...
2024 01 06    12 54 48.0 +18 49 44   0.01923 0.9866    99.2    79.7    20.1
...
2024 01 14    13 47 58.9 -23 32 09   0.01828 0.9805    79.7    99.3    20.8
...
2024 01 29    15 53 18.8 -63 13 34   0.03598 0.9707    65.9   112.2    22.9

A. U. Tomatic                (C) Copyright 2023 MPC           M.P.E.C. 2023-Y104




More information about the Iaude mailing list